Bradford, PA

11:42 PM EDT on October 22, 2019 (GMT -0400)
Bradford Regional

Weather History for KBFD - August, 2019

Change the Weather History Date:

Monday, August 5, 2019

  Actual Average Record
Temperature  
Mean Temperature 67 °F 65 °F  
Max Temperature 81 °F 77 °F 86 °F (2001)
Min Temperature 53 °F 53 °F 32 °F (1972)
Degree Days  
Heating Degree Days 0 0  
Month to date heating degree days 0 0  
Since 1 June heating degree days 134 209  
Since 1 July heating degree days 12 64  
Cooling Degree Days 2 2  
Month to date cooling degree days 12 10  
Year to date cooling degree days 202 134  
Since 1 June cooling degree days 195 124  
Growing Degree Days 17 (Base 50)    
Moisture  
Dew Point 58 °F    
Average Humidity 75    
Maximum Humidity 100    
Minimum Humidity 50    
Precipitation  
Precipitation 0.00 in 0.13 in 1.64 in (1983)
Month to date precipitation 0.55 0.68  
Year to date precipitation 28.52 26.52  
Sea Level Pressure  
Sea Level Pressure 30.00 in    
Wind  
Wind Speed 3 mph (SSE)    
Max Wind Speed 13 mph    
Max Gust Speed 19 mph    
Visibility 10 miles    
Events      
T = Trace of Precipitation, MM = Missing Value Source: NWS Daily Summary

Daily Weather History Graph

Daily Weather History Graph

Search for Another Location

Airport or City:

Astronomy

Aug. 05, 2019 Rise Set
Actual Time 6:12 AM EDT 8:28 PM EDT
Civil Twilight 5:41 AM EDT 8:59 PM EDT
Nautical Twilight 5:02 AM EDT 9:37 PM EDT
Astronomical Twilight 4:20 AM EDT 10:19 PM EDT
Moon 11:30 AM EDT (8/5) 11:34 PM EDT (8/5)
Length of Visible Light 15h 17m
Length of Day
14h 15m
Waxing Crescent, 28% of the Moon is Illuminated
Aug 5
Waxing Crescent
Aug 7
First Quarter
Aug 15
Full
Aug 23
Last Quarter
Aug 30
New

Hourly Weather History & Observations

Time (EDT) Temp. Heat Index Dew Point Humidity Pressure Visibility Wind Dir Wind Speed Gust Speed Precip Events Conditions
12:53 AM 57.0 °F - 55.0 °F 93% 30.03 in 10.0 mi Calm Calm - N/A   Clear
1:53 AM 55.9 °F - 54.0 °F 93% 30.03 in 10.0 mi Calm Calm - N/A   Clear
2:53 AM 53.1 °F - 52.0 °F 96% 30.04 in 2.0 mi Calm Calm - N/A   Clear
3:02 AM 54.0 °F - 52.0 °F 93% 30.07 in 7.0 mi Calm Calm - N/A   Clear
3:53 AM 54.0 °F - 52.0 °F 93% 30.04 in 10.0 mi NW 4.6 mph - N/A   Mostly Cloudy
4:53 AM 55.0 °F - 53.1 °F 93% 30.03 in 10.0 mi Calm Calm - N/A   Scattered Clouds
5:53 AM 54.0 °F - 53.1 °F 97% 30.03 in 10.0 mi Calm Calm - N/A   Clear
6:53 AM 54.0 °F - 52.0 °F 93% 30.04 in 10.0 mi Calm Calm - N/A   Clear
7:53 AM 59.0 °F - 55.9 °F 90% 30.03 in 10.0 mi Calm Calm - N/A   Clear
8:53 AM 66.9 °F - 57.9 °F 73% 30.04 in 10.0 mi ESE 3.5 mph - N/A   Clear
9:53 AM 72.0 °F - 54.0 °F 53% 30.04 in 10.0 mi SSE 6.9 mph - N/A   Clear
10:53 AM 75.0 °F - 55.9 °F 51% 30.04 in 10.0 mi NE 3.5 mph - N/A   Clear
11:53 AM 77.0 °F - 59.0 °F 54% 30.02 in 10.0 mi Variable 5.8 mph - N/A   Clear
12:53 PM 77.0 °F - 57.9 °F 52% 30.01 in 10.0 mi Calm Calm - N/A   Mostly Cloudy
1:53 PM 78.1 °F - 59.0 °F 52% 30.00 in 10.0 mi Calm Calm - N/A   Mostly Cloudy
2:53 PM 78.1 °F - 59.0 °F 52% 29.99 in 10.0 mi Variable 4.6 mph - N/A   Scattered Clouds
3:53 PM 81.0 °F 81.7 °F 61.0 °F 50% 29.96 in 10.0 mi WSW 8.1 mph - N/A   Partly Cloudy
4:53 PM 80.1 °F 81.2 °F 62.1 °F 54% 29.96 in 10.0 mi Variable 5.8 mph - N/A   Partly Cloudy
5:53 PM 77.0 °F - 63.0 °F 62% 29.96 in 10.0 mi SSW 4.6 mph - N/A   Scattered Clouds
6:53 PM 77.0 °F - 62.1 °F 60% 29.94 in 10.0 mi Calm Calm - N/A   Scattered Clouds
7:53 PM 72.0 °F - 64.9 °F 78% 29.94 in 10.0 mi Calm Calm - N/A   Scattered Clouds
8:53 PM 69.1 °F - 64.9 °F 87% 29.94 in 10.0 mi Calm Calm - N/A   Partly Cloudy
9:53 PM 64.0 °F - 63.0 °F 96% 29.94 in 8.0 mi SE 4.6 mph - N/A   Clear
10:53 PM 63.0 °F - 62.1 °F 97% 29.93 in 10.0 mi SE 3.5 mph - N/A   Clear
11:53 PM 64.9 °F - 62.1 °F 90% 29.92 in 10.0 mi SSE 3.5 mph - N/A   Partly Cloudy